Simultaneous Nadir Overpasses (SNOs) Predictions

Prediction of SNOs between AQUA and GOES-15 Satellite Orbit:

Table of predicted SNOs for the next 14.0 days since TLE Epoch: 11/3/2017
Index Date Time (AQUA) AQUA Lat,Lon GOES-15 Lat,Lon Distance(km) Time Diff (sec)
1 11/04/2017 22:16:30 0.75,-130.39 -0.12,-134.59 477.35 80
2 11/05/2017 10:37:46 0.29,-135.55 0.10,-134.65 103.43 80
3 11/07/2017 10:25:34 -0.30,-132.59 0.10,-134.55 222.37 80
4 11/07/2017 22:46:59 -0.76,-137.79 -0.08,-134.44 380.41 80
5 11/09/2017 22:34:47 -0.16,-134.83 -0.08,-134.33 55.30 80
6 11/11/2017 22:22:34 0.40,-131.85 -0.08,-134.23 269.67 80
7 11/12/2017 10:43:49 0.66,-137.01 0.06,-134.29 310.48 80
8 11/14/2017 10:31:38 0.04,-134.05 0.06,-134.18 14.21 80
9 11/16/2017 10:19:26 -0.58,-131.09 0.07,-134.06 338.57 80
10 11/16/2017 22:40:49 -0.52,-136.28 -0.05,-133.94 265.29 80




NCC Satellite Simultaneous Nadir Overpasses (SNOs) Prediction Service
